Stündliche Wetter Abbiategrasso

Heute, 24 Juni, Donnerstag

Zeit Temperatur Niederschläge Wind Luftdruck Luftfeuchtigkeit
00:00 +19°C° 0 mm 2 m/S 751 mmHg 77%
01:00 +18°C° 0 mm 2 m/S 751 mmHg 78%
02:00 +19°C° 0 mm 1 m/S 751 mmHg 80%
03:00 +19°C° 0 mm 1 m/S 751 mmHg 82%
04:00 +18°C° 0 mm 1 m/S 751 mmHg 85%
05:00 +19°C° 0 mm 1 m/S 751 mmHg 82%
06:00 +20°C° 0 mm 1 m/S 752 mmHg 80%
07:00 +21°C° 0 mm 1 m/S 752 mmHg 78%
08:00 +23°C° 0 mm 1 m/S 752 mmHg 70%
09:00 +25°C° 0 mm 1 m/S 752 mmHg 63%
10:00 +26°C° 0 mm 1 m/S 752 mmHg 56%
11:00 +28°C° 0 mm 2 m/S 752 mmHg 51%
12:00 +29°C° 0 mm 2 m/S 751 mmHg 46%
13:00 +30°C° 0 mm 2 m/S 751 mmHg 40%
14:00 +30°C° 0.1 mm 3 m/S 751 mmHg 41%
15:00 +29°C° 0.1 mm 3 m/S 751 mmHg 42%
16:00 +29°C° 0.1 mm 4 m/S 750 mmHg 43%
17:00 +28°C° 0 mm 3 m/S 750 mmHg 46%
18:00 +27°C° 0 mm 3 m/S 750 mmHg 50%
19:00 +26°C° 0 mm 2 m/S 750 mmHg 53%
20:00 +24°C° 0.1 mm 2 m/S 750 mmHg 59%
21:00 +23°C° 0.1 mm 2 m/S 751 mmHg 66%
22:00 +20°C° 0.1 mm 2 m/S 751 mmHg 72%
23:00 +19°C° 0.3 mm 2 m/S 751 mmHg 76%

Morgen, 25 Juni, Freitag

Zeit Temperatur Niederschläge Wind Luftdruck Luftfeuchtigkeit
00:00 +19°C° 0.3 mm 2 m/S 751 mmHg 81%
01:00 +18°C° 0.3 mm 2 m/S 751 mmHg 85%
02:00 +18°C° 0 mm 2 m/S 751 mmHg 85%
03:00 +17°C° 0 mm 2 m/S 751 mmHg 85%
04:00 +17°C° 0 mm 2 m/S 751 mmHg 85%
05:00 +18°C° 0 mm 2 m/S 751 mmHg 80%
06:00 +20°C° 0 mm 1 m/S 751 mmHg 74%
07:00 +21°C° 0 mm 1 m/S 751 mmHg 69%
08:00 +23°C° 0 mm 2 m/S 751 mmHg 62%
09:00 +25°C° 0 mm 2 m/S 751 mmHg 56%
10:00 +26°C° 0 mm 2 m/S 751 mmHg 49%
11:00 +28°C° 0 mm 2 m/S 750 mmHg 46%
12:00 +29°C° 0 mm 2 m/S 750 mmHg 43%
13:00 +30°C° 0 mm 2 m/S 750 mmHg 41%
14:00 +30°C° 0 mm 2 m/S 750 mmHg 40%
15:00 +30°C° 0 mm 2 m/S 749 mmHg 39%
16:00 +31°C° 0 mm 2 m/S 749 mmHg 38%
17:00 +29°C° 0 mm 2 m/S 749 mmHg 43%
18:00 +28°C° 0 mm 3 m/S 749 mmHg 48%
19:00 +27°C° 0 mm 3 m/S 749 mmHg 53%
20:00 +25°C° 0.1 mm 2 m/S 749 mmHg 60%
21:00 +23°C° 0.1 mm 2 m/S 750 mmHg 67%
22:00 +20°C° 0.1 mm 2 m/S 750 mmHg 74%
23:00 +20°C° 0.1 mm 2 m/S 751 mmHg 77%

übermorgen, 26 Juni, Samstag

Zeit Temperatur Niederschläge Wind Luftdruck Luftfeuchtigkeit
00:00 +20°C° 0.1 mm 1 m/S 751 mmHg 81%
01:00 +19°C° 0.1 mm 1 m/S 751 mmHg 84%
02:00 +19°C° 0 mm 1 m/S 751 mmHg 85%
03:00 +19°C° 0 mm 1 m/S 751 mmHg 85%
04:00 +18°C° 0 mm 1 m/S 751 mmHg 86%
05:00 +19°C° 0 mm 1 m/S 751 mmHg 81%
06:00 +20°C° 0 mm 1 m/S 752 mmHg 77%
07:00 +21°C° 0 mm 1 m/S 752 mmHg 72%
08:00 +23°C° 0 mm 1 m/S 752 mmHg 66%
09:00 +25°C° 0 mm 1 m/S 752 mmHg 59%
10:00 +27°C° 0 mm 1 m/S 752 mmHg 53%
11:00 +28°C° 0 mm 1 m/S 751 mmHg 49%
12:00 +29°C° 0 mm 1 m/S 751 mmHg 46%
13:00 +31°C° 0 mm 1 m/S 751 mmHg 42%
14:00 +31°C° 0 mm 1 m/S 750 mmHg 41%
15:00 +31°C° 0 mm 2 m/S 750 mmHg 39%
16:00 +31°C° 0 mm 2 m/S 750 mmHg 38%
17:00 +31°C° 0 mm 2 m/S 750 mmHg 42%
18:00 +30°C° 0 mm 1 m/S 750 mmHg 46%
19:00 +29°C° 0 mm 1 m/S 750 mmHg 50%
20:00 +27°C° 0 mm 1 m/S 750 mmHg 54%
21:00 +26°C° 0 mm 1 m/S 750 mmHg 58%
22:00 +24°C° 0 mm 1 m/S 750 mmHg 62%
23:00 +24°C° 0 mm 1 m/S 751 mmHg 64%

27 Juni, Sonntag

Zeit Temperatur Niederschläge Wind Luftdruck Luftfeuchtigkeit
00:00 +23°C° 0 mm 1 m/S 751 mmHg 67%
01:00 +22°C° 0 mm 1 m/S 751 mmHg 69%
02:00 +22°C° 0 mm 1 m/S 751 mmHg 70%
03:00 +21°C° 0 mm 1 m/S 751 mmHg 71%
04:00 +21°C° 0 mm 1 m/S 751 mmHg 72%
05:00 +22°C° 0 mm 1 m/S 751 mmHg 69%
06:00 +23°C° 0 mm 1 m/S 751 mmHg 66%
07:00 +24°C° 0 mm 1 m/S 751 mmHg 63%
08:00 +26°C° 0 mm 1 m/S 751 mmHg 58%
09:00 +27°C° 0 mm 1 m/S 751 mmHg 53%
10:00 +29°C° 0 mm 1 m/S 751 mmHg 48%
11:00 +30°C° 0 mm 2 m/S 750 mmHg 44%
12:00 +31°C° 0 mm 2 m/S 750 mmHg 41%
13:00 +32°C° 0 mm 2 m/S 750 mmHg 38%
14:00 +34°C° 0 mm 2 m/S 750 mmHg 37%
15:00 +34°C° 0 mm 2 m/S 749 mmHg 36%
16:00 +34°C° 0 mm 2 m/S 749 mmHg 35%
17:00 +32°C° 0 mm 2 m/S 749 mmHg 40%
18:00 +31°C° 0 mm 2 m/S 749 mmHg 45%
19:00 +30°C° 0 mm 2 m/S 749 mmHg 50%
20:00 +29°C° 0 mm 2 m/S 749 mmHg 54%
21:00 +27°C° 0 mm 2 m/S 749 mmHg 59%
22:00 +25°C° 0 mm 2 m/S 750 mmHg 63%
23:00 +25°C° 0 mm 2 m/S 750 mmHg 65%

28 Juni, Montag

Zeit Temperatur Niederschläge Wind Luftdruck Luftfeuchtigkeit
00:00 +24°C° 0 mm 2 m/S 750 mmHg 67%
01:00 +23°C° 0 mm 2 m/S 750 mmHg 69%
02:00 +23°C° 0 mm 2 m/S 750 mmHg 70%
03:00 +21°C° 0 mm 2 m/S 750 mmHg 72%
04:00 +21°C° 0 mm 1 m/S 750 mmHg 74%
05:00 +22°C° 0 mm 1 m/S 750 mmHg 72%
06:00 +23°C° 0 mm 1 m/S 750 mmHg 69%
07:00 +24°C° 0 mm 1 m/S 750 mmHg 67%
08:00 +26°C° 0 mm 1 m/S 750 mmHg 60%
09:00 +27°C° 0 mm 1 m/S 750 mmHg 54%
10:00 +29°C° 0 mm 2 m/S 750 mmHg 47%
11:00 +30°C° 0 mm 2 m/S 750 mmHg 44%
12:00 +31°C° 0 mm 2 m/S 750 mmHg 41%
13:00 +34°C° 0 mm 2 m/S 750 mmHg 38%
14:00 +34°C° 0 mm 2 m/S 750 mmHg 38%
15:00 +34°C° 0 mm 2 m/S 749 mmHg 38%
16:00 +33°C° 0 mm 1 m/S 749 mmHg 37%
17:00 +33°C° 0 mm 1 m/S 749 mmHg 41%
18:00 +32°C° 0 mm 1 m/S 749 mmHg 45%
19:00 +31°C° 0 mm 1 m/S 748 mmHg 49%
20:00 +28°C° 0.1 mm 1 m/S 749 mmHg 56%
21:00 +26°C° 0.1 mm 1 m/S 749 mmHg 62%
22:00 +24°C° 0.1 mm 1 m/S 749 mmHg 69%
23:00 +23°C° 0.2 mm 1 m/S 749 mmHg 74%

29 Juni, Dienstag

Zeit Temperatur Niederschläge Wind Luftdruck Luftfeuchtigkeit
00:00 +22°C° 0.2 mm 1 m/S 750 mmHg 79%
01:00 +21°C° 0.2 mm 1 m/S 750 mmHg 83%
02:00 +21°C° 0.2 mm 1 m/S 750 mmHg 85%
03:00 +21°C° 0.2 mm 1 m/S 749 mmHg 87%
04:00 +20°C° 0.2 mm 1 m/S 749 mmHg 89%
05:00 +21°C° 0 mm 1 m/S 750 mmHg 86%
06:00 +22°C° 0 mm 1 m/S 750 mmHg 84%
07:00 +23°C° 0 mm 1 m/S 750 mmHg 81%
08:00 +24°C° 0 mm 1 m/S 750 mmHg 73%
09:00 +26°C° 0 mm 2 m/S 750 mmHg 64%
10:00 +28°C° 0 mm 2 m/S 750 mmHg 55%
11:00 +30°C° 0 mm 2 m/S 750 mmHg 50%
12:00 +31°C° 0 mm 2 m/S 749 mmHg 45%
13:00 +32°C° 0 mm 2 m/S 749 mmHg 41%
14:00 +32°C° 0 mm 2 m/S 749 mmHg 37%
15:00 +34°C° 0 mm 3 m/S 749 mmHg 34%
16:00 +34°C° 0 mm 3 m/S 748 mmHg 31%
17:00 +31°C° 0 mm 3 m/S 748 mmHg 36%
18:00 +30°C° 0 mm 3 m/S 748 mmHg 40%
19:00 +28°C° 0 mm 3 m/S 748 mmHg 45%
20:00 +27°C° 0 mm 3 m/S 749 mmHg 51%
21:00 +25°C° 0 mm 2 m/S 749 mmHg 57%
22:00 +24°C° 0 mm 2 m/S 750 mmHg 64%
23:00 +23°C° 0.1 mm 2 m/S 750 mmHg 70%
Mehr zeigen

Wir brauchen deine Erlaubnis

Meteoprog und unser Service Anbieter werden persönliche Daten aufbewahren, so wie Cookies, Geräte Bezeichnung oder ähnliche Technologien von deinem Gerät und Prozess, so wie Persönliche Daten Inhalte und Werbungen, genauso wie social Media und den Verkehr zu analysieren.

  • Aufbewahrung und/oder Zugang zu deiner Geräte Informationen.

    Cookies, Geräte Bezeichnung oder andere Informationen, können aufbewahrt oder Zugang zu deinem Gerät erhalten, für den Grund, der oben angegeben wird.

  • Personalisierte Werbung und Inhalte, Messungen, Einblick in das Publikum und Produkt Entwicklung.

    Werbungen und Inhalte können personalisiert werden, basierend auf ein Profil. Mehr Daten können besser personalisierte Werbungen und Inhalte hinzufügen. Werbung und Inhalte können gezeigt und gemessen werden. Einblicke über das Publikum, welche die Werbung gesehen haben und den Inhalt, können abgeleitet werden. So wie Daten können genutzt werden, um es zu verbessern oder die Benutzer Erfahrung zu verbessern das System und die Software.

Wenn du “Ich stimme zu” klickst, erlaubst du uns, die Cookies zu benutzen die Geräte Bezeichnung, den Web oder ähnliche Technologien zu benutzen. Deine Settings, können in deinem Gerät bei deinem Browser geändert werden.

Für den bestimmten Zweck, berechtigten Interessen beruhen darauf, mehr als auf den Inhalt. Du kannst mehr darüber in unseren Privaten und Cookie Politik lesen.